CAPE
0 0 0 0 0 0 0 0 0 0 0 0 0 0 0 0 0 0 0 0 0 0 0 0 0 0 0 0 0 0 0 0 0 0 0 0 0 0 0 0 0 0 0
0 0 0 0 0 0 0 0 0 0 0 0 0 0 0 0 0 0 0 0 1 1 0 0 0 0 0 0 0 0 0 0 0 0 0 0 0 0 0 0 0 0 0
0 0 0 0 0 0 0 0 0 0 0 0 0 0 0 0 0 0 0 0 0 0 0 0 0 0 0 0 0 0 0 0 0 0 1 0 0 0 0 0 0 0 0
0 0 0 0 0 0 0 0 0 0 0 0 0 0 0 0 0 0 0 0 0 0 0 0 0 0 0 0 0 0 0 0 0 0 0 0 0 0 1 1 0 0 0
0 0 0 0 0 0 0 0 0 0 0 0 0 0 0 0 0 0 0 0 0 0 0 0 0 0 0 0 0 0 0 0 0 0 0 0 1 0 1 3 3 0 0
0 0 0 0 0 0 0 0 0 0 0 0 0 0 0 0 0 0 0 0 0 0 0 0 0 0 0 0 0 0 0 0 0 0 0 0 1 1 3 3 1 0 0
0 0 0 0 0 0 0 0 0 0 0 0 0 0 0 0 0 0 0 0 0 0 0 0 0 0 0 0 0 0 0 0 0 1 0 0 0 0 3 2 0 0 0
0 0 0 0 0 0 0 0 0 0 0 0 0 0 0 0 0 0 0 0 0 0 0 0 0 0 0 0 0 0 0 0 0 0 0 0 0 0 1 2 2 2 0
0 0 1 0 0 0 0 0 0 0 0 0 0 0 0 0 0 0 0 0 0 0 0 0 0 0 0 0 0 0 0 0 0 0 0 0 0 0 0 0 0 0 1
0 0 0 0 0 0 0 0 0 0 0 0 0 0 0 0 0 0 0 0 0 0 0 0 0 0 0 0 0 0 0 0 0 0 0 0 0 0 1 1 1 0 0
1 1 0 0 0 0 0 0 0 0 0 0 0 0 0 0 0 0 0 0 0 0 0 0 0 0 0 0 0 0 0 0 0 0 0 0 0 0 1 2 1 0 0
1 1 2 0 0 0 0 0 0 0 0 0 0 0 0 0 0 0 0 0 0 0 0 0 0 0 0 0 0 0 0 0 0 0 0 0 0 0 0 1 0 0 0
1 0 2 0 0 0 0 1 0 0 0 0 0 0 0 0 0 0 0 0 0 0 0 0 0 0 0 0 0 0 0 0 0 0 0 0 0 0 0 0 0 0 0
0 0 2 0 0 0 0 0 0 0 0 0 0 0 0 0 0 0 0 0 0 0 0 0 0 0 0 0 0 0 0 0 0 0 0 0 0 0 0 0 0 0 0
0 0 1 0 0 1 0 1 0 0 0 0 0 0 0 0 0 0 0 0 0 0 0 0 0 0 0 0 0 0 0 0 0 0 0 0 0 0 0 0 1 0 1
0 0 1 0 0 1 1 0 0 0 0 0 0 0 0 0 0 0 0 0 0 0 0 0 0 0 0 0 0 0 0 0 0 0 0 0 0 0 0 0 0 0 0
0 0 0 0 0 1 1 0 1 1 0 0 0 0 0 0 0 0 0 0 0 0 0 0 0 0 0 0 0 0 0 0 0 0 0 0 0 0 0 0 0 0 0
0 0 0 0 0 0 0 1 1 1 0 0 0 0 0 0 0 0 0 0 0 0 0 0 0 0 0 0 0 0 0 0 0 0 0 0 0 0 0 0 0 0 0
0 0 0 0 0 0 0 0 0 0 0 0 0 0 0 0 0 0 0 0 0 0 0 0 0 0 0 0 0 0 0 0 0 0 0 0 0 0 0 0 0 0 0
0 0 0 0 0 0 0 0 0 0 0 0 1 1 0 0 0 1 0 0 0 0 0 0 0 0 0 0 0 0 0 0 0 0 0 0 0 0 0 0 0 0 0
0 0 0 0 0 0 0 0 0 0 0 0 0 0 0 0 0 0 0 0 0 0 0 0 0 0 0 0 0 0 0 0 0 0 0 0 0 0 0 0 0 0 0
0 0 0 0 0 0 0 0 0 0 0 0 0 0 0 0 0 0 0 0 0 0 0 0 0 0 0 0 0 0 0 0 0 0 0 0 0 0 0 0 0 0 0
0 0 0 0 0 0 0 0 0 0 0 0 0 0 0 0 0 0 0 0 0 0 0 0 0 0 0 0 0 0 0 0 0 0 0 0 0 0 0 0 0 0 0
0 0 0 0 0 0 0 0 0 0 0 0 0 0 0 0 0 0 0 0 0 0 0 0 0 0 0 0 0 0 0 0 0 0 0 0 0 0 0 0 0 0 0
0 0 0 0 0 0 0 0 0 0 0 0 0 0 0 0 0 0 0 0 0 0 0 0 0 0 0 0 0 0 0 0 0 0 0 0 0 0 0 0 0 0 0
0 0 0 0 0 0 0 0 0 0 0 0 0 0 0 0 0 0 0 0 0 0 0 0 0 0 0 0 0 0 0 0 0 0 0 0 0 0 0 0 0 0 0
CIN
0 0 0 0 0 0 0 0 0 0 0 0 0 0 0 0 0 0 0 0 0 0 0 0 0 0 0 0 0 -1 0 0 0 0 -1 0 0 0 0 0 0 0 0
0 0 0 0 0 0 0 0 0 0 0 0 0 0 0 0 0 0 0 0 0 0 0 0 0 0 0 0 0 0 0 0 0 0 0 0 0 0 0 0 0 0 0
0 0 0 0 0 0 0 0 0 0 0 0 0 0 0 0 0 0 0 0 0 0 0 0 0 0 0 0 0 0 0 0 0 0 0 0 0 0 0 0 0 0 0
0 0 0 0 0 0 0 0 0 0 0 0 0 0 0 0 0 0 0 0 0 0 0 0 0 0 0 0 0 0 0 0 0 0 0 0 0 0 0 0 0 0 0
0 0 0 0 0 0 0 0 0 0 0 0 0 0 0 0 0 0 0 0 0 0 0 0 0 -1 -1 0 0 0 0 0 0 0 0 0 0 0 0 0 0 0 0
0 0 0 0 0 0 0 0 0 0 0 0 0 0 0 0 0 0 0 0 0 0 0 0 0 0 0 0 -1 0 0 0 0 0 0 0 0 0 0 0 0 0 0
0 0 0 0 0 0 0 0 0 0 0 0 0 0 0 0 0 0 0 0 0 0 0 0 0 0 0 0 0 0 0 0 0 0 0 0 0 0 0 0 0 0 0
0 0 0 0 0 0 0 0 0 0 0 0 0 0 0 0 0 0 0 0 0 0 0 0 0 0 0 0 0 0 0 0 0 0 0 0 0 0 0 0 0 0 0
0 0 0 0 0 0 0 0 0 0 0 0 0 0 0 0 0 0 0 0 0 0 0 0 0 0 0 0 0 0 0 0 0 0 0 0 0 0 0 0 0 0 0
0 0 0 0 0 0 0 0 0 0 0 0 0 0 0 0 0 0 0 0 0 0 0 0 0 0 0 0 0 0 0 0 0 0 0 0 0 0 0 0 0 0 0
0 0 0 0 0 0 0 0 0 0 0 0 0 0 0 0 0 0 0 0 0 0 0 0 0 0 0 0 0 0 0 0 0 0 0 0 0 0 0 0 0 0 0
0 0 0 0 0 0 0 0 0 0 0 0 0 0 0 0 0 0 0 0 0 0 0 0 0 0 0 0 0 0 0 0 0 0 0 0 0 0 0 0 0 0 0
0 0 0 0 0 0 0 0 0 0 0 0 0 0 0 0 0 0 0 0 0 0 0 0 0 0 0 0 0 0 0 0 0 0 0 0 0 0 0 0 0 0 0
0 0 0 0 0 0 0 0 0 0 0 0 0 0 0 0 0 0 0 0 0 0 0 0 0 0 0 0 0 0 0 0 0 0 0 0 0 0 0 0 0 0 0
0 0 0 0 0 0 0 0 0 0 0 0 0 0 0 0 0 0 0 0 0 0 0 0 0 0 0 0 0 0 0 0 0 0 0 0 0 0 0 0 0 0 0
0 0 0 0 0 0 0 0 0 0 0 0 0 0 0 0 0 0 0 0 0 0 0 0 0 0 0 0 0 0 0 0 0 0 0 0 0 0 0 0 0 0 0
0 0 0 0 0 0 0 0 0 0 0 0 0 0 0 0 0 0 0 0 0 0 0 0 0 0 0 0 0 0 0 0 0 0 0 0 0 0 0 0 0 0 0
0 0 0 0 0 0 0 0 0 0 0 0 0 0 0 0 0 0 0 0 0 0 0 0 0 0 0 0 0 0 0 0 0 0 0 0 0 0 0 0 0 0 0
0 0 0 0 0 0 0 0 0 0 0 0 0 0 0 0 0 0 0 0 0 0 0 0 0 0 0 0 0 0 0 0 0 0 0 0 0 0 0 0 0 0 0
0 0 0 0 0 0 0 0 0 0 0 0 0 0 0 0 0 0 0 0 0 0 0 0 0 0 0 0 0 0 0 0 0 0 0 0 0 0 0 0 0 0 0
0 0 0 0 0 0 0 0 0 0 0 0 0 0 0 0 0 0 0 0 0 0 0 0 0 0 0 0 0 0 0 0 0 0 0 0 0 0 0 0 0 0 0
0 0 0 0 0 0 0 0 0 0 0 0 0 0 0 0 0 0 0 0 0 0 0 0 0 0 0 0 0 0 0 0 0 0 0 0 0 0 0 0 0 0 0
0 0 0 0 0 0 0 0 0 0 0 0 0 0 0 0 0 0 0 0 0 0 0 0 0 0 0 0 0 0 0 0 0 0 0 0 0 0 0 0 0 0 0
0 0 0 0 0 0 0 0 0 0 0 0 0 0 0 0 0 0 0 0 0 0 0 0 0 0 0 0 0 0 0 0 0 0 0 0 0 0 0 0 0 0 0
0 0 0 0 0 0 0 0 0 0 0 0 0 0 0 0 0 0 0 0 0 0 0 0 0 0 0 0 0 0 0 0 0 0 0 0 0 0 0 0 0 0 0
0 0 0 0 0 0 0 0 0 0 0 0 0 0 0 0 0 0 0 0 0 0 0 0 0 0 0 0 0 0 0 0 0 0 0 0 0 0 0 0 0 0 0
Wind_Speed
29 29 35 32 31 31 33 31 28 24 20 17 15 13 12 10 8 7 7 6 5 4 5 5 6 7 8 10 12 14 15 17 20 22 26 28 29 33 35 35 33 33 34
31 30 35 33 31 32 33 30 27 24 21 18 16 14 12 10 8 7 5 5 4 3 4 6 7 9 10 11 13 14 16 18 20 24 26 29 30 33 35 34 32 32 34
32 31 36 36 33 34 32 30 27 24 22 19 17 15 13 11 9 8 6 5 5 6 6 6 7 9 11 12 14 15 17 19 20 23 26 28 29 32 34 32 31 32 33
32 32 35 38 35 35 32 30 29 26 22 20 18 16 14 12 10 9 8 7 7 7 7 8 9 10 11 12 14 15 17 19 21 24 26 28 29 32 30 32 31 30 30
34 34 34 36 37 35 34 32 29 27 25 21 19 17 15 14 13 11 10 9 9 8 8 8 9 11 12 13 15 16 18 19 21 24 26 27 28 30 32 28 26 28 25
37 36 34 33 37 37 35 33 31 29 26 23 21 18 16 16 13 12 11 11 10 9 8 8 9 10 12 13 14 16 17 19 21 23 24 27 27 26 27 28 27 27 27
40 38 35 32 36 38 35 34 33 31 28 25 23 20 18 17 14 13 12 12 11 10 10 9 10 11 12 13 15 16 17 18 19 20 23 23 24 25 25 25 25 24 25
41 40 37 32 33 38 37 37 36 33 30 27 25 22 20 18 15 14 13 13 13 12 11 10 10 10 11 13 15 16 18 18 18 19 19 20 21 22 23 22 22 22 20
43 41 38 35 33 34 41 38 37 35 32 28 25 23 21 20 17 15 14 14 13 12 11 10 8 9 10 12 15 16 17 17 17 18 18 18 19 21 23 23 24 23 22
43 42 40 36 34 32 39 39 36 35 33 29 27 25 23 21 18 16 15 15 15 13 12 11 8 9 9 10 13 14 15 16 17 18 17 17 18 20 22 23 23 23 22
43 42 41 37 35 33 33 38 36 34 32 31 28 26 25 22 20 17 16 16 15 14 11 9 9 9 9 10 11 12 14 14 16 16 16 17 17 18 20 22 22 22 21
43 42 41 37 34 32 31 31 36 35 34 33 31 29 27 24 21 20 18 17 15 14 11 10 10 9 8 9 11 12 13 14 14 15 15 16 16 17 18 19 20 22 23
42 42 40 36 33 30 30 30 33 34 36 35 32 30 26 25 24 22 19 18 16 14 12 11 9 8 8 10 11 11 12 12 13 14 14 16 17 17 17 17 17 18 23
42 41 39 35 33 30 29 31 32 35 33 33 31 30 28 26 25 23 21 19 17 14 12 12 10 9 10 11 12 12 13 12 12 12 13 15 16 16 17 16 16 16 19
41 40 38 33 33 30 31 31 33 33 32 32 32 29 27 28 27 22 18 18 16 13 11 10 10 11 12 13 14 13 13 12 12 12 13 13 14 15 16 16 16 16 17
39 38 36 32 30 29 29 32 32 33 32 31 30 29 29 28 23 20 20 19 16 12 13 13 14 14 13 15 14 14 13 13 12 12 12 12 13 14 14 15 15 15 15
38 37 35 33 29 28 27 29 32 30 30 28 29 29 27 22 21 21 20 19 16 13 18 16 17 17 16 17 16 14 15 13 12 11 12 12 12 12 13 13 13 14 14
36 35 34 31 28 28 27 26 29 30 29 29 28 26 25 24 23 23 21 19 18 17 19 18 18 18 19 19 17 16 16 15 13 12 12 11 11 11 11 11 11 12 13
33 32 30 28 26 25 27 24 24 26 27 26 24 24 23 22 21 21 20 21 22 20 20 20 19 20 21 19 18 17 17 15 14 12 13 12 11 11 12 11 11 11 12
30 28 25 23 21 21 23 21 21 23 24 25 26 25 23 22 25 26 25 23 23 23 22 22 20 21 22 21 20 20 19 17 16 15 14 13 12 11 11 11 10 10 11
25 23 19 16 15 16 17 17 16 17 20 20 21 22 22 23 25 26 26 26 26 24 23 23 22 22 23 22 21 20 19 18 16 15 15 14 12 12 13 12 11 12 10
16 14 13 12 11 10 12 12 12 12 14 14 15 15 15 17 19 21 22 23 23 23 23 21 21 21 21 20 19 18 18 18 16 15 15 14 14 14 13 12 11 11 10
11 10 9 9 8 7 8 10 9 9 10 11 12 13 14 15 16 17 17 19 19 19 19 18 18 18 17 17 18 18 18 18 16 15 15 15 14 14 13 13 12 12 12
7 7 6 7 6 6 6 7 7 7 8 9 9 10 10 11 13 14 15 15 16 16 16 15 15 15 15 16 16 16 16 15 14 14 14 14 15 15 14 15 14 14 13
3 2 3 3 4 4 3 4 4 4 5 6 6 6 7 8 9 10 11 12 12 13 13 13 13 14 14 14 14 13 12 12 13 12 14 14 15 14 15 15 14 14 14
2 2 2 3 3 3 3 3 3 3 3 4 5 6 6 7 8 9 10 10 11 11 12 12 13 13 12 13 13 12 12 12 12 12 12 13 13 13 13 14 13 14 15
Wind_Direction
275 263 254 254 252 249 247 247 248 248 250 252 255 259 266 275 289 306 317 322 330 333 323 315 312 318 324 335 344 351 356 359 2 2 1 4 8 7 8 10 14 16 19
281 269 256 256 252 248 247 245 244 245 247 249 251 254 259 265 273 288 302 309 320 322 317 308 305 309 317 326 333 342 348 352 354 355 357 1 5 6 7 10 14 18 19
285 276 260 255 252 249 247 244 242 242 244 247 249 250 253 257 261 273 283 288 296 301 303 305 304 306 310 319 327 334 340 346 351 352 354 359 3 5 6 11 15 17 20
292 282 267 255 253 249 248 244 240 240 241 244 247 249 251 253 256 260 269 278 283 290 295 300 303 305 309 317 324 331 337 342 346 349 352 355 359 2 8 8 13 17 19
294 284 273 260 253 251 248 244 240 239 241 244 244 248 251 253 256 255 262 269 277 282 289 295 301 306 311 317 321 327 332 338 342 346 349 354 358 1 4 9 13 16 24
290 286 279 268 254 250 247 243 239 239 240 242 244 245 247 254 250 251 258 263 270 274 282 291 299 305 310 317 322 326 331 335 339 344 349 350 357 3 6 8 12 15 16
286 285 281 272 257 250 247 243 239 238 240 242 245 246 247 253 247 248 254 263 266 271 278 286 296 303 309 315 321 326 330 333 339 344 348 354 358 3 7 9 14 17 16
284 282 279 274 262 250 247 243 240 239 239 241 245 246 248 250 245 247 251 262 267 273 277 283 292 302 309 314 319 323 328 333 340 346 352 356 2 6 8 11 15 18 23
280 279 279 272 264 255 245 243 240 239 241 242 244 243 245 248 244 243 248 258 265 271 279 285 296 304 311 315 319 323 328 335 342 347 352 358 4 7 7 10 13 16 18
280 278 276 272 264 258 248 243 240 239 241 242 243 245 246 246 243 241 247 256 262 269 277 286 293 301 309 318 320 323 327 332 339 345 353 359 5 6 8 11 13 14 17
280 280 274 269 263 259 252 242 239 237 239 241 243 245 245 246 244 241 243 254 260 264 271 276 288 294 305 314 319 323 328 335 337 345 350 356 3 4 8 10 13 17 18
278 278 274 268 262 258 251 243 237 236 237 240 242 244 247 247 246 243 244 253 258 264 266 278 285 288 297 307 314 320 327 332 337 342 345 350 356 358 3 10 15 19 20
275 273 273 267 262 256 250 241 236 234 237 239 241 243 245 246 247 246 245 250 258 266 276 279 282 284 292 302 308 315 323 328 333 336 340 344 349 353 359 7 14 21 16
273 271 270 264 259 255 250 243 237 234 235 238 240 242 244 245 246 246 248 252 258 265 271 277 282 287 292 297 302 307 313 320 326 331 336 341 344 348 353 1 7 16 15
272 270 267 263 257 254 251 244 239 238 235 237 240 240 240 244 244 240 242 245 249 256 262 274 280 286 285 289 294 298 305 311 317 324 329 335 339 344 350 357 3 10 8
269 267 265 262 259 254 252 247 244 242 240 241 242 242 245 251 243 235 242 244 248 243 259 265 273 277 282 282 285 289 294 299 307 314 320 327 334 341 346 352 360 6 14
266 265 263 260 258 252 250 247 242 241 240 240 242 243 245 245 245 244 241 242 243 238 265 264 271 273 279 280 279 281 287 290 297 302 310 316 325 333 340 347 355 1 7
263 262 261 259 257 251 249 251 244 240 237 239 242 242 244 246 248 250 245 243 248 249 266 268 272 272 278 277 275 277 282 286 287 292 298 304 313 321 329 337 344 352 357
260 260 262 259 255 252 248 249 247 241 241 242 241 245 245 247 246 246 242 252 254 258 265 271 276 276 277 276 276 277 277 278 280 282 288 293 300 308 315 323 332 342 350
257 257 260 259 255 251 248 248 246 243 242 244 246 248 248 251 246 249 252 258 262 267 271 273 275 278 277 277 276 276 275 275 275 277 281 285 290 296 303 311 318 328 337
255 255 256 259 258 253 250 248 249 247 246 250 252 251 250 251 252 253 258 263 267 271 273 274 277 276 276 276 276 274 273 273 272 274 276 279 282 287 296 302 309 317 328
254 254 255 257 259 257 254 255 252 251 252 252 256 262 260 258 261 265 269 273 277 279 278 277 277 277 277 275 274 273 272 271 271 271 273 274 278 284 290 295 300 307 312
252 252 255 259 262 261 259 258 260 259 264 266 268 266 267 267 269 273 277 281 285 287 286 282 281 281 281 282 282 280 275 272 270 269 270 271 274 279 283 288 291 297 300
257 255 255 262 266 265 266 264 269 276 278 279 282 283 285 284 284 285 286 289 292 295 296 294 290 288 290 291 292 290 285 282 277 272 271 271 274 279 282 285 288 292 295
264 279 274 275 277 280 284 290 302 305 305 311 318 311 308 309 307 306 305 305 305 305 306 305 304 303 303 302 301 300 296 289 283 279 278 277 278 278 281 284 286 290 294
13 20 28 36 40 40 44 41 25 11 5 356 349 347 345 340 333 329 325 323 321 320 319 318 318 316 315 312 309 306 303 298 294 291 288 285 283 284 285 286 287 289 291